Location: Unspecified
(43.4680°N, 87.1740°E)
Time: 21:10:25
(UTC+00:00)

Cosmos 2082 Rocket - Pass Details

Date: 17 April 2021
Orbit: 835 x 852 km, 71.0° (Epoch: 12 May)

Event Time Altitude Azimuth Distance (km) Brightness Sun altitude
Rises 20:36:53 0° 337° (NNW) 3,396 5.7 -26.4°
Reaches altitude 10° 20:39:23 10° 341° (NNW) 2,457 4.9 -26.1°
Maximum altitude 20:44:57 61° 62° (ENE) 944 2.6 -25.4°
Drops below altitude 10° 20:50:29 10° 143° (SE) 2,439 4.5 -24.7°
Sets 20:52:57 0° 146° (SSE) 3,370 5.2 -24.4°
